CZ-6A DEB

Satellite information

Favourite Embed

Satellite Type and Status

DEBRISIN ORBIT

Key statistics

Satellite CZ-6A DEB at a glance.

Uptime

1073

Days in orbit

Revolutions

≈ 14.0

Per day

Orbit

SSO

Sun Synchronous Orbit

Inclination

98.9

Latest

Satellite identification and parameters

Extended collection of information and parameters for CZ-6A DEB.

Object identification

Identified? True

Debris? True

Object name: CZ-6A DEB

International designator: 2022-151JZ

Object number (NORAD): 54521

Object ID (CCSDS): 54521

Country: PEOPLES REPUBLIC OF CHINA (PRC)

Current information (Y/N): Y

RCS size: SMALL

Orbital parameters

Period: 103.074 minutes

Inclination: 98.8551 deg

SMA: 7282.157 km

Apoapsis: 1005.724 km

Periapsis: 802.32 km

RAAN: 265.926 deg

Eccentricy: 0.0139659

Argument of periapsis: 34.6097 deg

Mean anomaly: 326.406 deg

Mean motion: 13.97052344 rev/day

Mean motion (dot): 0.0000092 rev/day2

B* drag term: 0.00063467435 1/REarth

Two-line elements (TLE)

Creation date: Oct. 19, 2025, 2:20 a.m.

Reference frame: TEME

Reference center: EARTH

Epoch: Oct. 18, 2025, 9:41 p.m. UTC

TLE line 0: 0 CZ-6A DEB

TLE line 1: 1 54521U 22151JZ 25291.90364630 .00000920 00000-0 63467-3 0 9998

TLE line 2: 2 54521 98.8551 265.9260 0139659 34.6097 326.4060 13.97052344149358

Live tracking on map

Real-time ground track for satellite CZ-6A DEB.

In-orbit conjunctions

A list of the most updated potential collisions computed for object CZ-6A DEB.

Target Orbit TCA Probability of collision Miss distance Type
THORAD AGENA D DEB SSO 2025-03-08 12:37:46 0.0003460124 89.0 (m) DEBRIS
COSMOS 2251 DEB LEO 2024-08-03 11:40:58 0.0001751463 210.0 (m) DEBRIS

Associated space launch

Chinese satellite reported for atmospheric/ocean/environmental/spatial parameter research purposes, details TBD.

CZ-6A DEB was lifted into orbit during the mission ‘Long March 6A | Yunhai 3’, on board a Long March 6A space rocket.

The launch took place on Nov. 11, 2022, 10:52 p.m. from Launch Complex 9A.

For more information about the launch, click the button.

Launch to space Long March 6A | Yunhai 3
Long March 6A | Yunhai 3

Agency: N/A

Status: Launch Successful

Launch date: Nov. 11, 2022, 10:52 p.m. UTC

Rocket: Long March 6A

Launch pad: Launch Complex 9A

Location: Taiyuan Satellite Launch Center, People's Republic of China

...

Latest news about this satellite

There are no fresh news available about this satellite. Check back as we update our databases every day.


Newsletter sign-up

Weekly statistics, charts and insights to help you stay on top of the space industry.